Current Conditions
Mostly Cloudy
Conditions



Pressure
1009.92 (hPa) - 29.82 (inHG)
Visibility

10.0 (km) - 6.2 (miles)
Temperature
17  °C
Temperature
15  °C
Dewpoint
88  %
 Humidity
Wind Speed
3  km/h
2  kts
2  mph
0.9  m/s
Wind Direction
N
45°
E
90°
135°
S
180°
225°
W
270°
315°
Calm

Due North
Airport Data
LIME
Milan Bergamo Airport
Metar :LIME 250220Z VRB02KT 9999 BKN060 17/15 Q1010 NOSIG
Wed 25th May 04:20 am
Raw Metar Info
Raw METAR is the most common format in the world for the transmission of observational weather data. It is highly standardized through the International Civil Aviation Organization (ICAO), which allows it to be understood throughout most of the world.
API Info
Data Provided by
https://www.checkwx.com/weather/LIME

Aviation Weather providing METAR, TAF, AIRMET, SIGMET and OUTLOOK Weather Reports
© Info
CSS/SVG/PHP scripts were developed by weather34 for use in the weather34 template © 2015-2022

Guide Info provided by Metar-Wikipedia